User: anonymous   Login
Location: Caribou
(46.8667°N, 68.0167°W)
Time: 01:44:13
(UTC-04:00)
Language:

SL-08 RB Rocket - Orbit

View from above orbital plane
View from above orbital plane
View from above satellite
View from above satellite

Ground track
Ground track

The orbit data is extracted from the following two-line orbital elements,

1 26387U 00033D   18112.62145927 +.00000101 +00000-0 +25681-4 0  9999
2 26387 097.9265 173.2615 0027840 073.8670 081.1703 14.68378959210972
Epoch (UTC): 22 April 2018 14:54:54
Eccentricity: 0.0027840
inclination: 97.9265°
perigee height: 646 km
apogee height: 686 km
right ascension of ascending node: 173.2615°
argument of perigee: 73.8670°
revolutions per day: 14.68378959
mean anomaly at epoch: 81.1703°
orbit number at epoch: 21097

The dashed part of the orbit path shows where the satellite is in the earth's shadow,  

DLR